Location: Newark
(44.6028°N, 124.0883°W)
Time: 18:28:13
(UTC+00:00)

Vanguard 1 Rocket - Pass Details

Date: 29 October 2019
Orbit: 651 x 4225 km, 34.3° (Epoch: 16 November)

Event Time Altitude Azimuth Distance (km) Brightness Sun altitude
Rises 18:50:29 0° 258° (WSW) 4,877 11.1 29.7°
Reaches altitude 10° 18:53:07 10° 254° (WSW) 4,229 10.9 29.9°
Maximum altitude 19:05:14 58° 179° (S) 3,174 11.4 30.5°
Drops below altitude 10° 19:27:20 10° 109° (ESE) 7,221 12.4 31.4°
Sets 19:33:38 0° 106° (ESE) 8,427 12.6 31.5°
